Wind_Speed
11 12 11 10 10 11 11 11 11 11 11 12 12 13 14 14 15 15 16 17 17 19 20 20 20 21 22 22 22 23 23 23 23 23 24 23 24 25
12 12 12 11 11 12 12 12 12 12 13 14 15 16 16 17 17 18 19 19 19 20 21 21 23 23 24 24 24 24 25 26 25 25 26 26 26 26
14 14 14 14 14 13 13 14 14 15 15 16 17 18 19 20 21 22 21 22 22 23 23 24 24 25 25 26 26 26 26 26 27 27 28 28 28 29
16 16 16 16 16 16 15 16 17 17 18 18 19 20 21 22 23 24 24 24 24 25 26 26 27 27 27 28 28 28 28 28 28 29 29 29 29 29
17 18 18 18 18 18 18 19 20 20 20 21 21 22 23 24 24 25 25 26 27 27 27 28 29 29 30 30 30 30 30 30 30 30 30 30 30 30
19 20 20 20 20 20 21 22 22 23 24 24 25 25 26 26 27 27 27 28 29 30 30 30 30 30 31 32 33 33 32 33 33 33 33 33 32 32
21 22 22 23 23 24 24 25 25 26 27 27 28 28 29 30 30 30 31 31 32 33 33 33 33 33 34 34 34 35 35 35 35 35 35 35 35 34
23 24 25 26 26 27 27 28 28 28 29 30 30 31 32 33 33 34 35 35 35 36 36 36 37 36 37 37 38 38 38 38 38 37 37 37 37 36
25 26 27 28 28 29 30 31 31 31 32 33 34 35 35 36 37 37 38 39 39 39 39 39 40 40 40 40 40 41 41 42 41 41 40 40 39 39
28 29 30 30 31 32 32 33 34 35 36 37 38 39 39 40 40 41 41 41 41 41 41 41 41 41 41 42 42 42 43 44 44 44 44 43 42 42
30 31 32 32 33 34 35 35 36 37 39 40 41 42 43 43 44 43 43 42 41 41 42 42 42 42 43 42 43 44 45 46 47 47 46 46 45 44
32 33 34 35 36 37 37 38 39 40 41 43 44 45 46 46 46 45 44 44 43 43 44 45 45 45 44 44 44 45 46 47 47 48 48 47 47 46
34 36 37 38 39 39 40 41 42 43 44 45 46 47 48 48 46 46 46 46 46 45 45 46 47 47 47 46 46 46 47 47 48 48 49 49 49 48
37 38 39 40 40 41 42 44 45 46 47 48 48 48 48 47 47 47 47 47 47 46 45 47 47 47 47 47 47 47 48 49 49 50 50 51 51 50
40 41 41 41 42 43 44 46 47 48 49 49 49 49 49 48 47 48 48 47 47 47 47 47 48 48 48 48 47 48 49 49 50 51 51 52 52 52
42 42 43 43 44 45 46 47 49 50 51 51 50 50 50 48 48 48 48 48 48 47 48 49 50 49 49 49 50 49 49 49 49 51 52 52 53 54
44 44 44 45 46 47 49 50 51 51 51 51 51 51 50 50 50 50 50 50 50 50 50 50 51 50 50 50 50 50 50 49 49 50 52 52 53 54
46 46 47 48 49 50 51 52 52 52 52 52 52 52 51 51 51 51 51 51 51 50 50 50 50 50 49 49 50 50 49 49 49 50 51 52 51 52
48 48 49 50 51 52 53 53 53 53 53 53 52 51 51 51 52 52 52 52 51 50 49 49 49 50 49 48 47 49 49 49 49 48 50 51 51 51
50 50 51 52 53 54 55 55 54 53 53 53 53 52 52 52 52 53 52 51 51 50 49 48 49 49 49 48 47 47 47 48 48 47 48 49 49 50
52 52 53 54 55 55 55 55 54 54 54 54 54 53 53 53 52 52 52 51 50 49 48 46 47 48 48 47 46 45 45 45 45 45 46 47 47 48
54 54 55 56 56 56 56 56 55 55 55 55 55 54 53 53 52 51 50 49 48 47 46 45 45 45 45 43 42 41 41 42 42 42 42 43 43 43
56 56 56 57 57 57 56 56 56 56 56 55 54 54 53 52 50 49 48 48 47 46 45 43 42 41 40 40 39 37 37 39 39 39 38 38 39 38
Wind_Direction
347 346 341 335 330 328 325 321 316 310 306 303 301 298 295 292 290 285 280 276 274 271 268 266 263 261 260 258 257 257 255 253 251 250 250 248 246 244
344 343 340 335 331 328 323 319 316 310 306 301 298 296 295 293 290 286 282 279 277 274 271 268 265 263 262 259 257 258 256 255 254 253 252 252 251 249
336 336 335 332 329 326 323 318 315 311 307 302 299 296 295 294 291 287 284 280 277 276 274 271 269 266 263 261 259 259 258 257 257 256 254 253 252 251
329 329 329 327 325 322 320 318 315 312 308 303 299 297 296 294 291 287 284 281 279 278 276 272 269 267 266 264 261 260 259 258 257 257 255 253 252 253
323 323 322 321 320 318 316 315 314 312 309 305 302 299 298 296 293 289 285 282 279 279 277 273 269 267 265 264 262 261 260 259 258 257 256 255 254 254
319 318 317 316 315 314 313 312 311 310 307 305 303 300 299 297 293 290 287 283 281 279 278 274 270 268 266 264 262 260 259 259 258 257 256 256 255 255
314 314 313 312 311 311 310 309 308 307 306 304 302 300 298 295 292 289 287 284 281 279 277 275 271 268 266 265 263 261 259 258 257 256 256 256 256 255
311 311 310 310 310 309 309 308 307 305 304 303 302 300 298 295 292 289 287 285 282 278 275 274 271 269 267 266 265 262 260 258 258 256 256 256 255 255
310 310 309 309 308 308 308 307 306 305 305 304 303 302 300 296 294 292 289 286 283 279 275 273 271 269 267 266 265 262 260 258 257 256 255 255 255 255
309 309 308 308 307 307 306 306 306 306 305 305 303 301 300 298 296 294 291 288 284 280 276 274 272 270 269 266 264 262 260 258 257 257 256 255 255 255
309 308 307 307 306 306 306 306 305 305 304 304 302 301 300 299 298 295 292 288 284 281 278 275 273 271 269 267 266 264 262 260 258 256 256 254 254 254
307 307 307 307 306 306 305 305 304 304 304 303 302 301 300 299 298 295 292 288 285 281 278 275 274 272 270 268 267 266 263 261 258 256 255 255 253 253
305 306 306 306 306 305 305 304 304 304 304 303 302 301 300 298 296 293 291 289 286 283 280 277 274 272 271 269 267 266 264 261 259 257 255 254 253 252
305 305 306 306 305 305 304 304 304 304 303 303 302 301 300 298 295 293 292 290 287 285 281 278 276 273 272 270 267 266 265 263 261 258 256 254 253 252
304 305 306 305 305 304 304 304 304 304 304 303 303 302 300 298 296 294 292 290 288 286 283 279 277 274 272 271 269 268 266 263 261 259 257 254 252 252
304 305 305 305 304 304 304 304 304 303 303 303 302 302 300 298 296 294 292 290 288 287 285 281 278 275 272 272 271 269 267 264 262 259 257 254 253 252
303 304 304 304 303 303 303 303 303 303 303 303 303 302 300 298 296 295 292 290 290 288 286 281 278 275 273 273 273 270 267 265 263 260 256 254 252 251
302 302 303 303 303 303 303 303 303 303 302 302 303 302 299 298 297 295 293 292 291 290 287 283 279 274 273 273 273 270 267 266 264 261 257 255 252 251
301 302 302 302 303 303 303 303 303 302 302 302 302 301 299 298 296 295 293 292 291 291 288 285 280 276 274 273 271 270 268 266 263 261 258 256 253 251
301 302 302 302 302 303 303 303 302 302 302 302 302 301 299 298 297 295 294 292 291 291 288 285 282 278 275 274 272 270 269 267 264 261 259 256 254 253
301 302 302 302 302 302 303 302 302 302 302 302 302 301 300 299 298 296 294 292 292 291 289 286 282 279 277 275 274 272 269 266 264 262 260 257 254 252
301 301 302 302 302 302 302 302 302 302 302 302 302 301 300 299 298 296 295 294 293 292 290 287 283 279 276 275 274 272 268 264 262 261 258 256 254 252
300 301 301 301 301 301 301 301 302 302 302 302 302 302 301 299 298 297 296 294 293 292 290 287 282 278 275 274 274 271 268 264 261 259 256 255 253 252
Height
5858 5857 5856 5855 5854 5853 5852 5852 5852 5851 5851 5851 5850 5850 5850 5850 5850 5850 5851 5851 5851 5852 5852 5853 5853 5854 5855 5856 5857 5859 5860 5861 5863 5865 5866 5868 5869 5871
5857 5856 5854 5853 5852 5851 5850 5849 5849 5849 5848 5848 5847 5847 5846 5846 5846 5846 5846 5846 5846 5847 5847 5847 5848 5848 5849 5850 5851 5853 5854 5855 5857 5858 5860 5861 5863 5865
5856 5854 5853 5852 5850 5849 5848 5847 5846 5845 5845 5844 5843 5843 5842 5842 5841 5841 5841 5841 5841 5841 5841 5841 5842 5842 5843 5844 5845 5846 5847 5848 5850 5851 5853 5855 5856 5858
5854 5852 5851 5849 5848 5846 5845 5843 5842 5841 5840 5839 5838 5838 5837 5836 5835 5834 5834 5834 5834 5834 5834 5834 5835 5835 5836 5836 5837 5838 5840 5841 5842 5844 5845 5847 5849 5850
5851 5849 5848 5846 5844 5843 5841 5839 5838 5836 5835 5834 5833 5832 5830 5829 5828 5827 5827 5826 5826 5826 5826 5826 5826 5827 5827 5828 5829 5830 5831 5833 5834 5836 5837 5839 5840 5842
5847 5846 5844 5842 5840 5838 5836 5834 5832 5831 5829 5827 5826 5824 5823 5821 5820 5819 5818 5817 5817 5816 5816 5816 5816 5817 5818 5818 5820 5820 5822 5823 5825 5826 5828 5829 5831 5833
5843 5841 5839 5837 5835 5832 5830 5828 5826 5824 5822 5820 5818 5816 5814 5812 5811 5809 5808 5807 5807 5805 5805 5805 5805 5806 5806 5807 5808 5809 5811 5813 5814 5816 5817 5819 5821 5823
5838 5835 5833 5830 5828 5826 5823 5821 5818 5816 5813 5811 5809 5807 5804 5802 5800 5798 5796 5795 5795 5794 5792 5793 5793 5793 5794 5795 5795 5797 5798 5800 5802 5804 5806 5808 5809 5812
5832 5829 5827 5824 5821 5819 5816 5813 5810 5807 5804 5802 5799 5796 5793 5791 5788 5786 5783 5781 5781 5779 5778 5779 5779 5779 5780 5781 5781 5783 5784 5786 5788 5791 5793 5795 5797 5799
5825 5822 5820 5817 5814 5811 5808 5805 5801 5798 5795 5792 5788 5785 5781 5778 5774 5771 5769 5767 5766 5764 5762 5763 5763 5764 5765 5765 5766 5767 5769 5771 5773 5776 5778 5781 5783 5786
5817 5814 5811 5808 5805 5802 5799 5796 5792 5789 5785 5781 5777 5772 5768 5764 5760 5757 5754 5751 5750 5749 5747 5746 5747 5747 5749 5750 5750 5751 5752 5754 5756 5759 5762 5765 5768 5771
5810 5806 5802 5799 5795 5792 5788 5785 5782 5778 5774 5770 5765 5760 5755 5751 5746 5742 5738 5736 5734 5734 5732 5730 5730 5730 5732 5734 5734 5734 5735 5737 5739 5742 5745 5748 5752 5755
5801 5797 5793 5789 5785 5781 5777 5774 5770 5766 5762 5757 5752 5747 5742 5737 5732 5728 5724 5721 5718 5717 5716 5713 5713 5713 5713 5716 5718 5717 5718 5719 5722 5725 5728 5731 5735 5738
5791 5788 5784 5779 5775 5770 5766 5762 5757 5753 5748 5743 5738 5733 5728 5723 5718 5714 5710 5706 5702 5700 5698 5696 5696 5695 5695 5697 5699 5700 5700 5701 5704 5706 5710 5713 5716 5720
5781 5777 5773 5768 5764 5759 5754 5749 5744 5739 5734 5729 5724 5719 5713 5708 5703 5699 5695 5691 5688 5685 5682 5680 5678 5678 5677 5678 5680 5681 5682 5683 5684 5687 5691 5694 5698 5702
5769 5765 5761 5756 5752 5747 5742 5737 5731 5726 5720 5715 5709 5704 5698 5693 5688 5683 5679 5676 5673 5671 5667 5663 5660 5660 5660 5661 5661 5662 5663 5664 5666 5668 5671 5675 5679 5683
5758 5754 5749 5744 5740 5734 5729 5723 5717 5712 5706 5700 5694 5689 5683 5678 5673 5668 5663 5659 5656 5653 5650 5647 5643 5642 5641 5642 5642 5643 5643 5645 5646 5648 5651 5655 5660 5664
5745 5741 5736 5731 5726 5721 5715 5709 5703 5697 5691 5685 5679 5673 5667 5662 5658 5652 5647 5643 5639 5635 5632 5629 5626 5624 5624 5625 5624 5623 5625 5626 5628 5629 5632 5636 5642 5646
5732 5728 5723 5717 5712 5706 5700 5694 5688 5682 5676 5670 5664 5658 5652 5646 5641 5636 5631 5626 5622 5618 5614 5611 5608 5606 5606 5608 5609 5606 5606 5608 5609 5611 5613 5617 5623 5629
5718 5713 5708 5703 5697 5691 5685 5679 5673 5667 5661 5655 5649 5642 5636 5630 5625 5620 5615 5609 5605 5601 5598 5595 5591 5589 5588 5589 5591 5592 5590 5589 5591 5593 5596 5599 5604 5609
5704 5699 5693 5687 5681 5675 5669 5663 5657 5651 5645 5639 5633 5626 5620 5614 5609 5603 5598 5593 5588 5585 5582 5579 5576 5574 5572 5571 5572 5574 5574 5573 5573 5575 5578 5581 5586 5591
5689 5683 5678 5672 5665 5659 5653 5647 5641 5636 5630 5623 5617 5610 5604 5598 5592 5587 5582 5577 5573 5569 5565 5563 5561 5558 5557 5556 5556 5557 5558 5559 5559 5559 5561 5565 5568 5574
5673 5667 5662 5655 5649 5643 5637 5631 5625 5619 5613 5607 5601 5594 5588 5582 5577 5571 5567 5562 5558 5554 5551 5548 5546 5544 5543 5542 5542 5542 5543 5544 5545 5546 5549 5551 5554 5558